Location: Nag� el Ma?a??a
(24.0667°N, 32.8833°E)
Time: 17:03:01
(UTC+00:00)

H-2A R/B - Pass Details

Date: 25 September 2021
Orbit: 501 x 538 km, 97.3° (Epoch: 12 March)

Event Time Altitude Azimuth Distance (km) Brightness Sun altitude
Rises 02:59:16 0° 4° (N) 2,680 6.4 -9.7°
Reaches altitude 10° 03:01:25 10° 359° (N) 1,787 5.5 -9.2°
Maximum altitude 03:05:10 52° 283° (WNW) 666 2.9 -8.4°
Drops below altitude 10° 03:08:54 10° 206° (SSW) 1,772 5.1 -7.5°
Sets 03:11:02 0° 202° (SSW) 2,655 6.1 -7.0°
